Location: The Saddle
(36.8333°N, 80.3417°W)
Time: 00:44:36
(UTC-04:00)

S-56A Canister/Altair - Visible Passes

Search period start: 10 August 2022 00:00
Search period end: 20 August 2022 00:00
Orbit: 635 x 2498 km, 38.9° (Epoch: 09 August)

Date Brightness Start Highest point End Pass type
(mag) Time Alt. Az. Time Alt. Az. Time Alt. Az.
10 Aug 9.8 01:05:29 10° WNW 01:18:21 55° WSW 01:18:21 55° WSW visible
10 Aug 11.3 03:15:21 10° W 03:15:42 11° W 03:15:42 11° W visible
10 Aug 10.1 20:18:05 10° WSW 20:31:55 86° N 20:47:06 10° E visible
10 Aug 9.9 22:24:35 10° W 22:39:45 86° N 22:49:15 27° E visible
11 Aug 9.7 00:31:44 10° WNW 00:46:31 63° SSW 00:46:36 63° SSW visible
11 Aug 11.1 02:40:49 10° W 02:43:58 16° W 02:43:58 16° W visible
11 Aug 10.0 21:51:08 10° W 22:06:01 85° N 22:17:33 20° E visible
11 Aug 9.6 23:58:04 10° WNW 00:13:06 68° SSW 00:14:55 63° S visible
12 Aug 10.9 02:06:32 10° W 02:12:17 22° W 02:12:17 22° W visible
12 Aug 10.1 21:17:47 10° W 21:32:16 83° N 21:45:55 14° E visible
12 Aug 9.7 23:24:27 10° WNW 23:39:35 73° SSW 23:43:17 56° SE visible
13 Aug 10.7 01:32:26 10° WNW 01:40:39 29° WSW 01:40:39 29° WSW visible
13 Aug 10.1 20:44:32 10° W 20:58:31 83° N 21:13:38 10° E visible
13 Aug 9.8 22:50:56 10° WNW 23:06:01 77° SSW 23:11:42 46° SE visible
14 Aug 10.4 00:58:28 10° WNW 01:09:04 36° WSW 01:09:04 36° WSW visible
14 Aug 9.9 22:17:31 10° WNW 22:32:22 81° SSW 22:40:10 36° ESE visible
15 Aug 10.2 00:24:38 10° WNW 00:37:33 43° SW 00:37:33 43° SW visible
15 Aug 10.0 21:44:10 10° WNW 21:58:42 85° SSW 22:08:41 27° ESE visible
15 Aug 10.1 23:50:55 10° WNW 00:05:00 48° SW 00:06:04 48° SSW visible
16 Aug 11.4 02:02:05 10° W 02:03:27 12° W 02:03:27 12° W visible
16 Aug 10.0 21:10:55 10° WNW 21:25:01 88° SSW 21:37:16 19° ESE visible
16 Aug 10.0 23:17:20 10° WNW 23:31:35 53° SW 23:34:39 48° S visible
17 Aug 11.2 01:27:07 10° W 01:32:02 17° WSW 01:32:02 17° WSW visible
17 Aug 10.0 20:37:46 10° WNW 20:51:19 89° NNE 21:05:54 12° ESE visible
17 Aug 10.1 22:43:50 10° WNW 22:58:07 58° SW 23:03:17 43° SSE visible
18 Aug 11.0 00:52:37 10° W 01:00:40 22° WSW 01:00:40 22° WSW visible
18 Aug 10.1 22:10:28 10° WNW 22:24:35 63° SSW 22:31:59 35° SSE visible
19 Aug 10.8 00:18:27 10° W 00:29:22 27° SW 00:29:22 27° SW visible
19 Aug 10.1 21:37:12 10° WNW 21:51:02 67° SSW 22:00:44 27° SE visible
